星链-36789(STARLINK-36789)
导读
STARLINK-36789(NORAD编号68118)是SpaceX星链(Starlink)星座中的一颗低轨互联网通信卫星,隶属于SpaceX规模庞大的星链卫星组网计划。 作为星链星座的组成部分,它运行在近地轨道,是SpaceX为实现全球高速卫星互联网覆盖部署的卫星之一,承担着为偏远地区、海洋、航空等场景提供宽带互联网接入服务的使命。 2026年SpaceX启动四千颗星链卫星降轨计划,将轨道高度从550公里降至480公里,这颗卫星也在此次调整范围内,降轨旨在降低碰撞风险,减少太空碎片隐患,提升太空运行安全性。
Basic Information
目录编号:
68118
目录名称:
STARLINK-36789
国际标识:
2026-044T
轨道中心:
EARTH
卫星名称:
星链-36789
卫星全名:
星链-36789(STARLINK-36789)
卫星状态:
在轨 (已飞行180 天)
发射日期:
2026-03-08 UTC
国别 :
美国
(US)
星等 :
--
Orbit Information
| 数据来源 | 国际轨道数据 |
| 星历时间: | 2026-09-02T04:43:03+0800 2天前 查看轨道信息 |
| 半长轴: | 6843.67km |
| 偏心率: | 0.0002377 |
| 轨道倾角: | 97.285° |
| 近地点辐角 | 82.561° |
| 升交点赤经 | 204.105° |
| 平近点角 | 277.590° |
| 近地点: | 463.906km |
| 远地点: | 467.16km |
| 周期: | 93.906分钟 |
| 每日圈数: | 15.334487 |
Detailed Information
固有亮度:
5
最大亮度:
2.5
卫星平台:
Starlink V1.0
覆盖范围:
全球
运营商:
太空探索技术公司
运营商所在国:
美国
制造商(研发单位):
太空探索技术公司
制造商所在国:
美国
使用方式:
暂无
Satellite Introduction
Starlink 计划是 SpaceX 推出的全球卫星互联网项目,通过发射低轨道卫星,为全球尤其是偏远地区提供高速、低延迟的互联网服务。自 2019 年起,Starlink 已部署数千颗卫星,旨在缩小全球数字鸿沟,推动互联网普及。该项目还为军事、航空等行业提供通信支持,带来广泛经济效益。
2D Orbit Map
3D Orbit Map
Orbit Altitude Analysis Chart
Orbit Inclination Analysis Chart
Orbit Comprehensive Analysis Chart
View Comprehensive ChartConjunction Data List
| Event ID | Objects | TCA | Miss Dist (km) | Collision Risk Probability | Collision Risk Index (CRI) | Action |
|---|---|---|---|---|---|---|
| CDM_260903-185406-402606-811821 |
STARLINK-33992
(64026)
STARLINK-36789
(68118) | 2026-09-03T 18:54:09+0000 |
2.008 km
极远距离 | 2.877763E-6 低风险 | 0.44 | |
| CDM_260903-203106-351206-811823 |
STARLINK-33751
(63512)
STARLINK-36789
(68118) | 2026-09-03T 20:31:05+0000 |
2.335 km
极远距离 | 1.997799E-6 低风险 | 0.41 | |
| CDM_260904-214104-811206-811821 |
STARLINK-2449
(48112)
STARLINK-36789
(68118) | 2026-09-04T 21:41:35+0000 |
2.463 km
极远距离 | 1.775098E-6 低风险 | 0.4 | |
| CDM_260905-053304-973306-811821 |
STARLINK-3252
(49733)
STARLINK-36789
(68118) | 2026-09-05T 05:33:10+0000 |
2.847 km
极远距离 | 1.394497E-6 低风险 | 0.38 | |
| CDM_260904-232004-784006-811821 |
STARLINK-2432
(47840)
STARLINK-36789
(68118) | 2026-09-04T 23:20:00+0000 |
2.647 km
极远距离 | 1.312114E-6 低风险 | 0.37 |

